Regional Weather Roundup
Issued by NWS Wakefield, VA

Home | Current Version | Previous Version | Graphics & Text | Print | Product List | Glossary On
Versions: 1 2 3 4 5 6 7 8 9 10 11 12 13 14 15 16 17 18 19 20 21 22 23 24 25 26 27 28 29 30 31 32 33 34 35
000
ASUS41 KAKQ 212210
RWRAKQ

REGIONAL WEATHER ROUNDUP
NATIONAL WEATHER SERVICE WAKEFIELD VA
600 PM EDT TUE OCT 21 2014

Note: "fair" indicates few or no clouds below 12,000 feet with no
significant weather and/or obstructions to visibility. * = Denotes
station may not report precipitation (e.g., rain,snow,etc.),
thunder or fog.

VAZ042-051-052>054-056-212300-
NORTHERN VIRGINIA

CITY           SKY/WX    TMP DP  RH WIND       PRES   REMARKS
WASH NATIONAL  CLOUDY    62  50  64 NW9       29.84R
DULLES         LGT RAIN  55  52  89 NW14      29.85R
FORT BELVOIR   LGT RAIN  60  53  77 W10       29.85R
QUANTICO       LGT RAIN  59  52  77 N14G23    29.84R
FREDERICKSBRG* MOCLDY    64  52  66 NW8       29.82R
STAFFORD*      CLOUDY    58  54  87 N9        29.87R
WARRENTON      RAIN      56  56 100 NW6       29.85R
CULPEPER*      RAIN      55  54  94 NW6       29.87R
MANASSAS*      CLOUDY    57  55  94 N8        29.85
LEESBURG*      HVY RAIN  55  55 100 NW7       29.88R
WINCHESTER     RAIN      54  48  82 NW6       29.88R
FRONT ROYAL*   CLOUDY    52  50  93 CALM      29.87R
LURAY*         CLOUDY    55  52  88 CALM      29.89R
$$

VAZ048-049-060>072-079>083-212300-
CENTRAL AND SOUTH CENTRAL VIRGINIA...AND NORTH CENTRAL NORTH CAROLINA

CITY           SKY/WX    TMP DP  RH WIND       PRES   REMARKS
RICHMOND       MOCLDY    67  51  56 CALM      29.81R
CHESTERFIELD*  CLOUDY   N/A N/A N/A SW3       29.82S
PETERSBURG*    PTCLDY    65  50  60 SW3       29.82S
HANOVER        CLOUDY    65  49  56 N3        29.83R
TAPPAHANNOCK*  MOCLDY    65  45  47 CALM      29.81S
CHARLOTTSVILLE CLOUDY    57  50  77 CALM      29.85R
ORANGE*        RAIN      55  52  88 NW6       29.88R
LOUISA*        LGT RAIN  59  50  72 NW14G23   29.84R
FARMVILLE*     CLOUDY    63  43  48 W5        29.83R
CREWE*         CLOUDY    65  46  50 CALM      29.84R
FORT PICKETT*  CLOUDY    65  45  49 W8        29.83R
LUNENBURG*     CLOUDY    64  51  64 CALM      29.84R
SOUTH HILL*    CLOUDY    66  52  59 CALM      29.89R
LAWRENCEVILLE* MOCLDY    64  53  68 CALM      29.83R
ROANOKE RAPIDS PTCLDY    68  52  56 CALM      29.83S
RALEIGH        MOCLDY    67  50  54 CALM      29.85R
$$

VAZ088>098-212300-
SOUTHEAST VIRGINIA

CITY           SKY/WX    TMP DP  RH WIND       PRES   REMARKS
NORFOLK        CLEAR     70  48  45 CALM      29.81S
VIRGINIA BEACH PTCLDY    69  53  56 E6        29.81R
NORFOLK NAVAL  PTCLDY    71  49  45 W3        29.83R
WEST POINT*    PTCLDY    66  54  64 CALM      29.81S
NEWPORT NEWS   MOCLDY    71  52  50 SW6       29.81S
LANGLEY AFB    CLOUDY    67  54  63 SW3       29.81S
FORT EUSTIS    MOCLDY    70  51  51 VRB2      29.80R
WILLIAMSBURG*  CLEAR     72  55  56 CALM      29.82S
HR EXEC AP*    PTCLDY    63  54  72 CALM      29.84R
FRANKLIN*      PTCLDY    66  52  59 CALM      29.82S
WAKEFIELD      MOCLDY    68  54  60 CALM      29.82R
$$

VAZ020-022-025-037-045-212300-
WEST CENTRAL AND SOUTHWEST VIRGINIA

CITY           SKY/WX    TMP DP  RH WIND       PRES   REMARKS
STAUNTON*      CLOUDY    54  48  82 CALM      29.91R
HOT SPRINGS VA CLOUDY    44  40  87 NW15G28   29.88R
LYNCHBURG      PTCLDY    59  43  55 VRB7      29.89R
DANVILLE       CLOUDY    66  42  41 NW12G21   29.87R
SOUTH BOSTON*  NOT AVBL
MARTINSVILLE   PTCLDY    62  42  48 NW13      29.92R
ROANOKE        LGT RAIN  53  42  66 NW18G28   29.94R
BLACKSBURG     CLOUDY    50  45  81 NW8       29.98R
DUBLIN*        CLOUDY    51  44  79 NW12G17   29.97R
MARION*        CLOUDY    51  37  58 W15G21    30.00R
HILLSVILLE*    CLOUDY    51  38  60 NW15G23   29.95R
RICHLANDS*     CLOUDY    52  38  60 NW12G21   30.00R
WISE*          CLOUDY    48  36  61 NW9G16    30.04R
ABINGDON*      CLOUDY    55  38  53 NW9       30.00R
$$

MDZ021>025-VAZ099-100-212300-
SOUTHERN MARYLAND AND THE DELMARVA PENINSULA

CITY           SKY/WX    TMP DP  RH WIND       PRES   REMARKS
PATUXENT RIVER MOCLDY    64  47  53 CALM      29.81R
BAY BRIDGE APT NOT AVBL
LEONARDTOWN    PTCLDY    61  46  59 CALM      29.83R
DOVER          MOCLDY    61  51  69 E5        29.80R
GEORGETOWN     CLEAR     63  55  75 E5        29.82R
EASTON         PTCLDY    66  48  52 CALM      29.84F
CAMBRIDGE      CLEAR     63  48  59 CALM      29.81S
SALISBURY      CLEAR     67  51  56 S3        29.81S
OCEAN CITY     CLEAR     66  58  75 VRB5      29.81R
WALLOPS ISLAND CLEAR     67  50  54 W3        29.82S
ACCOMACK*      PTCLDY    63  52  67 CALM      29.81F
$$

NCZ012>017-030>032-212300-
EASTERN NORTH CAROLINA

CITY           SKY/WX    TMP DP  RH WIND       PRES   REMARKS
ELIZABETH CITY PTCLDY    71  52  50 SW6       29.82R
AHOSKIE*       PTCLDY    64  55  75 CALM      29.84R
EDENTON*       PTCLDY    71  54  55 NW3       29.83R
CURRITUCK*     PTCLDY    72  49  44 W5        29.83R
KILL DEVIL HLS MOCLDY    69  58  67 CALM      29.82R
MANTEO         MOCLDY    70  57  63 SW9       29.83R
CAPE HATTERAS  PTCLDY    70  59  68 SW12      29.84S
TARBORO*       PTCLDY    68  53  58 CALM      29.84S
GOLDSBORO      PTCLDY    72  54  53 SW1       29.82S
WASHINGTON     CLEAR     70  52  52 CALM      29.83S
GREENVILLE     PTCLDY    70  54  56 CALM      29.86S
NEW BERN       MOCLDY    73  58  59 S6        29.84S
WILMINGTON     PTCLDY    72  55  55 SW7       29.83S
$$

VAZ048-212300-
ELSEWHERE

CITY           SKY/WX    TMP DP  RH WIND       PRES   REMARKS
HARRISBURG PA  LGT RAIN  59  51  75 CALM      29.84R
BALTIMORE      MOCLDY    63  50  62 CALM      29.81R
ANNAPOLIS      CLOUDY    64  51  62 E3        29.81R
ANDREWS AFB    MOCLDY    62  51  66 NW7       29.82R
WILMINGTON DE  PTCLDY    61  52  72 NW6       29.83R
PHILADELPHIA   MOCLDY    66  48  52 SW6       29.82R
WILDWOOD NJ*   CLEAR     63  48  59 CALM      29.83S
ATLANTIC CITY  PTCLDY    63  53  70 S3        29.82R
HENDERSON NC   CLOUDY    65  49  54 CALM      29.85R
GREENSBORO     PTCLDY    66  43  43 NW15      29.88R
ROCKY MOUNT    CLOUDY    69  52  54 W3        29.84R
FAYETTEVILLE   PTCLDY    73  47  39 W7        29.84R
CHARLOTTE      PTCLDY    69  42  37 N9        29.88R
$$

VAZ100-212300-
MARINE

STATION/POSITION TIME  TEMP    WIND        PRES    WAVE   SWELL
                       AIR SEA DIR/SP/G            HT/PER HT/PER
                 (UTC) (F)     (DEG/KT/KT) (MB)    (FT/S) (FT/S)
44066 TX TWR #4  2200   66 67  240/  6/  6 1009.8R   4/ 7   3/ 7
CAPE MAY NJ      2200   64 68  190/  2/  3 1009.4R
LEWES DE         2200   64 64  130/  2/  2 1009.5F
15NM E FENWICK I 2200   67 67  170/  4/  4 1009.5R   3/ 6   2/ 6
OCEAN-CITY-INLET 2200   67 66  210/ 10/ 11 1009.0S
WACHAPREAGUE VA  2200   69 65   CALM  /  1 1009.5F
THOMAS POINT MD  2200   64 65  100/  3/  4 1010.7R
GOOSES REEF MD   2200   66     100/  6/  6 1009.7F
COVE POINT MD    2200   66      CALM  /  1 1009.3R
SOLOMONS ISLAND  2200      67                N/A
BISHOPS HEAD MD  2200   63 62  160/  4/  4 1009.0R
PINEY POINT MD   2200          140/  8/  8   N/A
POTOMAC MD       2200   65     130/  6/  8 1008.8S
CAMBRIDGE MD     2200   65 63  330/  3/  4 1009.1R
LEWISETTA VA     2200   64 64  130/  5/  6 1009.1R
RAPPAHANNOCK LGT 2200           50/  5/  6 1010.0R
STINGRAY PT      2200   66      80/  8/  8 1010.2R
YORK RVR RNG VA  2200   67     160/  6/  6 1008.9S
YORKTOWN VA      2200   69 68  190/  2/  2 1009.0S
JAMESTOWN VA     2200   68      CALM  /  2   N/A
DOMINION TERM VA 2200   68     270/  5/  5 1009.4F
KIPTOPEKE VA     2200      71   20/  2/  2   N/A
CHES BAY BRIDGE  2200   69 67  260/  7/  7 1009.0R
CHESAPEAKE LGHT  2100   67      20/  4/  4 1010.3R
WILLOUBY STN VA  2200   69     240/  4/  4 1008.2S
S CRANEY ISL VA  2200          270/  2/  3 1009.3R
CAPE HENRY BUOY  2200      70                N/A     2/10
1ST LANDING BUOY 2200   70     290/  6/  6 1009.2R
CAPE CHARLES BUO 2200      69                N/A     2/10   2/10
64NM E OF VA BCH 2200   69 69  210/ 12/ 14 1009.4S   2/ 9   2/ 9
DUCK PIER NC     2200   71 69  170/  3/  5 1009.1R
44100 DUCK FRF   2200      71                N/A     2/10   2/11
44056 DUCK FRF   2200                        N/A     2/11   2/11
OREGON INLET NC  2200   69 68  190/ 15/ 19 1010.1R
HATTERAS NC      2200   72 72  220/  8/ 12 1010.9S
DIAMOND SHLS NC  2200   73     220/ 14/ 17 1010.5F   3/ 9   2/ 9
CAPE LOOKOUT NC  2100   72     220/  7/  9 1010.6R
$$



USA.gov is the U.S. government's official web portal to all federal, state and local government web resources and services.